TimePST,TemperatureF,Dew PointF,Humidity,Sea Level PressureIn,VisibilityMPH,Wind Direction,Wind SpeedMPH,Gust SpeedMPH,PrecipitationIn,Events,Conditions,WindDirDegrees,DateUTC
12:58 AM,44.4,10.6,25,30.25,10.0,North,9.2,-,N/A,,Clear,360,2013-02-25 08:58:00
1:58 AM,42.8,10.6,27,30.25,10.0,NNW,8.1,-,N/A,,Clear,340,2013-02-25 09:58:00
2:58 AM,38.8,9.5,30,30.24,10.0,NE,5.8,-,N/A,,Clear,50,2013-02-25 10:58:00
3:58 AM,38.5,11.5,33,30.25,10.0,ENE,6.9,-,N/A,,Clear,60,2013-02-25 11:58:00
4:58 AM,34.9,10.6,37,30.26,10.0,ENE,4.6,-,N/A,,Clear,60,2013-02-25 12:58:00
5:58 AM,36.7,11.5,35,30.27,10.0,NE,6.9,-,N/A,,Clear,50,2013-02-25 13:58:00
6:58 AM,34.2,10.0,37,30.30,10.0,NW,5.8,-,N/A,,Clear,310,2013-02-25 14:58:00
7:58 AM,38.5,10.4,32,30.31,10.0,ESE,3.5,-,N/A,,Clear,110,2013-02-25 15:58:00
8:58 AM,43.2,11.5,28,30.28,10.0,ESE,3.5,-,N/A,,Clear,120,2013-02-25 16:58:00
9:58 AM,45.9,11.1,25,30.27,10.0,South,4.6,-,N/A,,Clear,190,2013-02-25 17:58:00
10:58 AM,48.2,11.1,22,30.24,10.0,NNW,1.2,-,N/A,,Clear,330,2013-02-25 18:58:00
11:56 AM,50.0,10.4,20,30.19,10.0,SSE,3.5,-,N/A,,Clear,160,2013-02-25 19:56:00
12:58 PM,51.8,9.7,18,30.13,10.0,Variable,1.2,-,N/A,,Clear,0,2013-02-25 20:58:00
1:58 PM,54.0,9.0,17,30.10,10.0,Calm,Calm,-,N/A,,Clear,0,2013-02-25 21:58:00
2:58 PM,55.6,9.9,16,30.07,10.0,Calm,Calm,-,N/A,,Clear,0,2013-02-25 22:58:00
3:58 PM,55.9,9.1,15,30.04,10.0,ENE,6.9,-,N/A,,Clear,70,2013-02-25 23:58:00
4:58 PM,55.2,10.0,17,30.03,10.0,ENE,9.2,-,N/A,,Clear,60,2013-02-26 00:58:00
5:58 PM,52.0,9.9,18,30.03,10.0,ENE,6.9,-,N/A,,Clear,70,2013-02-26 01:58:00
6:58 PM,48.4,10.2,21,30.03,10.0,NE,5.8,-,N/A,,Clear,50,2013-02-26 02:58:00
7:58 PM,44.1,10.4,25,30.02,10.0,Calm,Calm,-,N/A,,Clear,0,2013-02-26 03:58:00
8:58 PM,45.1,9.5,23,30.03,10.0,Calm,Calm,-,N/A,,Clear,0,2013-02-26 04:58:00
9:58 PM,43.7,10.2,26,30.02,10.0,Calm,Calm,-,N/A,,Clear,0,2013-02-26 05:58:00
10:58 PM,43.0,10.4,27,30.06,10.0,ENE,8.1,-,N/A,,Clear,70,2013-02-26 06:58:00
11:58 PM,42.8,10.2,26,30.06,10.0,East,11.5,-,N/A,,Clear,90,2013-02-26 07:58:00